DW0314 Weather Reports


time (UTC)temp
C
wind
direction
speed
KPH
gust
KPH
rain 1hr
cm
rain 24hr
cm
rain mn
cm
humidity
%
barometer
mb
20260505070005 13 326 12.9 25.7 0.00 0.00 0.00 46 1007.6
20260505064605 13 12 9.7 27.4 0.00 0.00 0.00 47 1007.6
20260505063100 13 5 9.7 29.0 0.00 0.00 0.00 46 1007.6
20260505061555 14 4 4.8 12.9 0.00 0.00 0.00 47 1007.6
20260505060058 14 314 3.2 16.1 0.00 0.00 0.00 46 1007.8
20260505054558 15 16 11.3 33.8 0.00 0.00 0.00 44 1006.5
20260505053049 15 319 16.1 40.2 0.00 0.00 0.00 42 1005.5
20260505051540 16 338 16.1 32.2 0.00 0.00 0.00 41 1005.0
20260505041537 18 338 19.3 32.2 0.00 0.00 0.00 39 1004.3
20260505040035 18 355 12.9 29.0 0.00 0.00 0.00 39 1003.8
20260505034536 19 350 16.1 25.7 0.00 0.00 0.00 39 1004.2
20260505033036 20 355 14.5 29.0 0.00 0.00 0.00 38 1003.7
20260505031532 20 12 17.7 29.0 0.00 0.00 0.00 38 1003.4
20260505030031 21 9 11.3 20.9 0.00 0.00 0.00 41 1002.9
20260505024540 21 338 14.5 24.1 0.00 0.00 0.00 43 1002.3
20260505023034 21 345 9.7 20.9 0.00 0.00 0.00 47 1002.0
20260505021536 21 345 4.8 14.5 0.00 0.00 0.00 58 1001.7
20260505020031 22 229 0.0 0.0 0.00 0.00 0.00 55 1001.0
20260505014537 22 161 0.0 3.2 0.00 0.00 0.00 55 1000.9
20260505013030 22 161 0.0 1.6 0.00 0.00 0.00 55 1000.7
20260505011527 23 161 0.0 0.0 0.00 0.00 0.00 54 1000.6
20260505010027 23 161 1.6 4.8 0.00 0.00 0.00 52 1000.1
20260505004527 25 159 1.6 6.4 0.00 0.00 0.00 50 1000.1
20260505003026 25 169 1.6 6.4 0.00 0.00 0.00 47 1000.3
20260505001533 25 197 4.8 11.3 0.00 0.00 0.00 45 1000.4
20260505000032 26 157 6.4 14.5 0.00 0.00 0.00 42 1000.4
20260504234524 26 170 8.0 14.5 0.00 0.00 0.00 43 1000.4
20260504233025 26 195 11.3 16.1 0.00 0.00 0.00 44 1000.4
20260504231529 26 188 11.3 17.7 0.00 0.00 0.00 44 1000.4
20260504230022 26 194 11.3 25.7 0.00 0.00 0.00 43 1000.3
20260504224526 26 184 11.3 16.1 0.00 0.00 0.00 41 1000.2
20260504223021 27 202 6.4 11.3 0.00 0.00 0.00 37 1000.1
20260504221521 28 183 3.2 9.7 0.00 0.00 0.00 34 1000.2
20260504220020 28 189 6.4 16.1 0.00 0.00 0.00 32 1000.2
20260504214516 27 213 6.4 19.3 0.00 0.00 0.00 33 1000.2
20260504213015 27 195 8.0 16.1 0.00 0.00 0.00 35 1000.3
20260504211514 27 201 3.2 12.9 0.00 0.00 0.00 35 1000.4
20260504210012 27 147 6.4 11.3 0.00 0.00 0.00 37 1000.6
20260504204510 27 190 8.0 12.9 0.00 0.00 0.00 36 1000.8
20260504203019 27 231 4.8 12.9 0.00 0.00 0.00 36 1000.9
20260504201507 27 184 4.8 14.5 0.00 0.00 0.00 38 1001.1
20260504200007 27 210 3.2 16.1 0.00 0.00 0.00 36 1001.2
20260504194508 27 300 1.6 14.5 0.00 0.00 0.00 34 1001.3
20260504193006 27 116 0.0 6.4 0.00 0.00 0.00 35 1001.3
20260504191501 27 167 8.0 16.1 0.00 0.00 0.00 35 1001.4
20260504190128 28 252 1.6 12.9 0.00 0.00 0.00 34 1001.5
20260504184600 27 116 6.4 12.9 0.00 0.00 0.00 38 1001.4
20260504183056 27 206 6.4 14.5 0.00 0.00 0.00 38 1001.5
20260504181558 27 240 1.6 6.4 0.00 0.00 0.00 40 1001.7
20260504180137 26 247 4.8 11.3 0.00 0.00 0.00 37 1002.0
20260504174549 26 323 0.0 12.9 0.00 0.00 0.00 39 1001.8
20260504173056 25 209 3.2 11.3 0.00 0.00 0.00 41 1001.8
20260504171542 25 213 8.0 12.9 0.00 0.00 0.00 44 1002.0
20260504081554 16 213 0.0 0.0 0.00 0.00 0.00 59 1004.0